Location: Berg
(48.4333°N, 13.9167°E)
Time: 02:55:10
(UTC+00:00)

Cosmos 2278 Rocket - Pass Details

Date: 18 September 2020
Orbit: 841 x 845 km, 71.0° (Epoch: 24 October)

Event Time Altitude Azimuth Distance (km) Brightness Sun altitude
Exits shadow 23:04:14 18° 324° (NW) 1,988 4.5 -40.2°
Drops below altitude 10° 23:07:52 10° 4° (N) 2,471 5.3 -40.1°
Sets 23:11:13 0° 24° (NNE) 3,410 6.1 -40.1°
